Home   Weather   Zhengzhou   Past weeks

Flag for China Past Weather in Zhengzhou, Henan, China — Yesterday and Last 2 Weeks

Now
68 °F

Clear.


Feels Like: 68 °F
Forecast: 52 / 81 °F
Wind: 6 mph from East

Location: Zhengzhou Airport

Current Time: Sep 30, 2016 at 7:56:24 PM

Latest Report: Sep 30, 2016 at 7:00 PM


Visibility: 5 mi

Pressure: 29.95 "Hg

Humidity: 30%

Dew Point: 36 °F

Location of ZhengzhouLocation

Past Weather in Zhengzhou — Graph

°F

Zhengzhou Temperature Yesterday

Maximum temperature yesterday: 72 °F (at 2:00 PM)
Minimum temperature yesterday: 52 °F (at 6:00 AM)
Average temperature yesterday: 63 °F

High & Low Weather Summary for the Past Weeks

 TemperatureHumidityPressure
High91 °F (Sep 23, 3:00 PM)100% (Sep 17, 4:00 AM)30.27 "Hg (Sep 17, 4:00 AM)
Low52 °F (Sep 29, 6:00 AM)20% (Sep 23, 3:00 PM)29.83 "Hg (Sep 16, 5:00 PM)
Average71 °F62%30.01 "Hg
* Reported Sep 15 6:00 PM — Sep 30 6:00 PM, Zhengzhou, Weather by CustomWeather, © 2016

Note: Actual official high and low records may vary slightly from our data, if they occured in-between our weather recording intervals... More about our weather records

Advertising

Zhengzhou Weather History for the Previous 24 Hours

Scroll right to see more
 ConditionsComfort  
Time TempWeatherWind HumidityBarometerVisibility
6:00 PM
Fri, Sep 30
72 °FClear.6 mph33%29.95 "Hg5 mi
5:00 PM73 °FSunny.6 mph29%29.95 "Hg10 mi
4:00 PM75 °FPassing clouds.6 mph29%29.95 "HgN/A
3:00 PM75 °FPassing clouds.6 mph27%29.95 "HgN/A
2:00 PM75 °FPassing clouds.6 mph25%29.95 "HgN/A
1:00 PM73 °FSunny.1 mph29%29.98 "Hg10 mi
12:00 PM73 °FSunny.1 mph25%30.01 "Hg10 mi
11:00 AM72 °FClear.1 mph36%30.01 "Hg5 mi
10:00 AM68 °FClear.1 mph43%30.04 "Hg4 mi
9:00 AM66 °FHaze.1 mph64%30.04 "Hg3 mi
8:00 AM63 °FFog.1 mph83%30.01 "Hg3 mi
7:00 AM59 °FFog.No wind88%30.01 "Hg3 mi
6:00 AM59 °FClear.1 mph88%30.01 "Hg4 mi
5:00 AM59 °FClear.1 mph82%30.01 "Hg4 mi
4:00 AM59 °FClear.1 mph77%30.01 "Hg4 mi
3:00 AM59 °FClear.1 mph88%30.01 "Hg4 mi
2:00 AM59 °FClear.1 mph88%30.01 "Hg4 mi
1:00 AM57 °FClear.No wind88%30.04 "Hg5 mi
12:00 AM57 °FClear.1 mph88%30.04 "Hg5 mi
11:00 PM
Thu, Sep 29
57 °FClear.1 mph88%30.04 "Hg5 mi
10:00 PM59 °FClear.1 mph72%30.07 "Hg10 mi
9:00 PM63 °FClear.1 mph64%30.07 "Hg10 mi
8:00 PM68 °FPassing clouds.3 mph35%30.07 "HgN/A
7:00 PM68 °FClear.3 mph35%30.04 "Hg10 mi
Weather by CustomWeather, © 2016

See weather overviewHow to use our weather pages